Perryton, Texas, United States (79070)
Lat: 36.40N, Lon: 100.8W
Wx Zone: TXZ004
Local Info
Past Weather Observations for Today

NOTE: This archive is for the closest National Weather Service station to Perryton. Information may differ from the station used for current weather conditions.

Click here for Long-term Archive

Time Weather Temperature Dewpoint Humidity Pressure Winds Precip Visibility
11:55
Clear
54°F / 12°C 30°F / -1°C 41% 30.48 in
(1032 mb)
N 8.1 mph
(N 13 kph)
-
11:35
Clear
54°F / 12°C 30°F / -1°C 41% 30.48 in
(1032 mb)
NE 5.8 mph
(NE 9 kph)
-
11:15
Clear
52°F / 11°C 32°F / 0°C 47% 30.48 in
(1032 mb)
NE 9.2 mph
(NE 15 kph)
-
10:55
Clear
52°F / 11°C 32°F / 0°C 47% 30.48 in
(1032 mb)
ENE 9.2 mph
(ENE 15 kph)
-
10:35
Clear
50°F / 10°C 34°F / 1°C 54% 30.48 in
(1032 mb)
NE 8.1 mph
(NE 13 kph)
-
10:15
Clear
48°F / 9°C 34°F / 1°C 58% 30.48 in
(1032 mb)
NE 5.8 mph
(NE 9 kph)
-
09:55
Clear
48°F / 9°C 36°F / 2°C 62% 30.48 in
(1032 mb)
NE 6.9 mph
(NE 11 kph)
-
09:35
Clear
46°F / 8°C 36°F / 2°C 66% 30.48 in
(1032 mb)
NE 9.2 mph
(NE 15 kph)
-
09:15
Clear
45°F / 7°C 36°F / 2°C 71% 30.51 in
(1033 mb)
NE 8.1 mph
(NE 13 kph)
-
08:55
Clear
45°F / 7°C 36°F / 2°C 71% 30.48 in
(1032 mb)
NNE 9.2 mph
(NNE 15 kph)
-
08:35
Clear
43°F / 6°C 36°F / 2°C 76% 30.48 in
(1032 mb)
N 9.2 mph
(N 15 kph)
-
08:15
Clear
43°F / 6°C 36°F / 2°C 76% 30.48 in
(1032 mb)
NNE 8.1 mph
(NNE 13 kph)
-
07:55
Clear
41°F / 5°C 37°F / 3°C 87% 30.48 in
(1032 mb)
N 5.8 mph
(N 9 kph)
-
07:35
Clear
41°F / 5°C 36°F / 2°C 81% 30.48 in
(1032 mb)
NNE 4.6 mph
(NNE 7 kph)
-
07:15
Clear
43°F / 6°C 36°F / 2°C 76% 30.45 in
(1031 mb)
NE 8.1 mph
(NE 13 kph)
-
06:55
Clear
43°F / 6°C 36°F / 2°C 76% 30.45 in
(1031 mb)
NE 4.6 mph
(NE 7 kph)
-
06:35
Clear
43°F / 6°C 36°F / 2°C 76% 30.45 in
(1031 mb)
NE 4.6 mph
(NE 7 kph)
-
06:15
Clear
43°F / 6°C 36°F / 2°C 76% 30.42 in
(1030 mb)
N 3.5 mph
(N 6 kph)
-
05:55
Clear
41°F / 5°C 36°F / 2°C 81% 30.42 in
(1030 mb)
Calm -
05:35
Clear
41°F / 5°C 36°F / 2°C 81% 30.42 in
(1030 mb)
Calm -
05:15
Clear
43°F / 6°C 36°F / 2°C 76% 30.42 in
(1030 mb)
Calm -
04:55
Clear
43°F / 6°C 36°F / 2°C 76% 30.39 in
(1029 mb)
Calm -
04:35
Clear
45°F / 7°C 36°F / 2°C 71% 30.39 in
(1029 mb)
Calm -
04:15
Clear
43°F / 6°C 36°F / 2°C 76% 30.39 in
(1029 mb)
Calm -
03:55
Clear
43°F / 6°C 34°F / 1°C 71% 30.39 in
(1029 mb)
Calm -
03:35
Clear
45°F / 7°C 36°F / 2°C 71% 30.39 in
(1029 mb)
Calm -
03:15
Clear
43°F / 6°C 34°F / 1°C 71% 30.39 in
(1029 mb)
Calm -
02:55
Clear
45°F / 7°C 34°F / 1°C 66% 30.39 in
(1029 mb)
Calm -
02:35
Clear
46°F / 8°C 34°F / 1°C 62% 30.39 in
(1029 mb)
Calm -
02:15
Clear
41°F / 5°C 34°F / 1°C 76% 30.39 in
(1029 mb)
Calm -
01:55
Clear
43°F / 6°C 34°F / 1°C 71% 30.39 in
(1029 mb)
Calm -
01:35
Clear
39°F / 4°C 34°F / 1°C 81% 30.36 in
(1028 mb)
SW 3.5 mph
(SW 6 kph)
-
01:15
Clear
39°F / 4°C 34°F / 1°C 81% 30.36 in
(1028 mb)
Calm -
00:55
Clear
39°F / 4°C 34°F / 1°C 81% 30.36 in
(1028 mb)
Calm -
00:35
Clear
41°F / 5°C 34°F / 1°C 76% 30.36 in
(1028 mb)
Calm -
00:15
Clear
39°F / 4°C 34°F / 1°C 81% 30.36 in
(1028 mb)
Calm -
Time Weather Temperature Dewpoint Humidity Pressure Winds Precip Visibility


Weather for websites

WeatherForYou.com, LLC is not responsible for any damages or problems caused by this service. Current weather conditions are obtained from the closest station including government and personal stations which may have varying degrees of accuracy. Weather forecasts are derived from the NOAA NDFD. Like all things, this site belongs to Jesus Christ... He just trusts me to maintain it. If you have any questions or comments email webmaster@weatherforyou.com

Copyright © 2014, WeatherForYou.com LLC. All rights reserved.